Location: Recife
(8.0585°S, 34.8848°W)
Time: 12:23:57
(UTC-03:00)

Courier 1B - All Passes

Search period start: 14 April 2026 00:00
Search period end: 24 April 2026 00:00
Orbit: 962 x 1209 km, 28.3° (Epoch: 14 April)

Date Brightness Start Highest point End Pass type
(mag) Time Alt. Az. Time Alt. Az. Time Alt. Az.
14 Apr - 02:32:17 10° NNE 02:34:27 11° NNE 02:36:38 10° NE visible
14 Apr - 04:21:56 10° NW 04:28:58 43° NNE 04:36:17 10° E visible
14 Apr - 06:15:42 10° WNW 06:23:22 64° SSW 06:31:12 10° SE daylight
14 Apr - 08:12:08 10° WSW 08:18:26 26° SSW 08:24:43 10° SE daylight
14 Apr - 10:10:07 10° SW 10:14:25 15° S 10:18:39 10° SSE daylight
14 Apr - 12:05:42 10° SSW 12:10:36 18° S 12:15:20 10° SE daylight
14 Apr - 13:59:15 10° SW 14:05:57 39° SSE 14:12:14 10° E daylight
14 Apr - 15:53:20 10° WSW 16:00:15 68° NNW 16:06:47 10° NE daylight
14 Apr - 17:50:05 10° WNW 17:54:15 17° NNW 17:58:20 10° N visible
15 Apr - 03:28:34 10° NNW 03:34:54 31° NNE 03:41:31 10° E visible
15 Apr - 05:21:34 10° WNW 05:29:13 84° SSW 05:37:08 10° ESE daylight
15 Apr - 07:17:15 10° W 07:24:03 32° SSW 07:30:54 10° SE daylight
15 Apr - 09:15:03 10° SW 09:19:50 17° S 09:24:33 10° SSE daylight
15 Apr - 11:11:32 10° SSW 11:16:06 16° S 11:20:33 10° SE daylight
15 Apr - 13:05:21 10° SW 13:11:46 31° SSE 13:17:50 10° E daylight
15 Apr - 14:59:10 10° WSW 15:06:20 88° SSE 15:13:04 10° ENE daylight
15 Apr - 16:54:54 10° W 17:00:20 25° NNW 17:05:35 10° NNE daylight
16 Apr - 02:35:32 10° NNW 02:40:51 22° NNE 02:46:21 10° ENE visible
16 Apr - 04:27:38 10° NW 04:35:06 74° NNE 04:42:56 10° ESE visible
16 Apr - 06:22:35 10° W 06:29:44 40° SSW 06:37:02 10° SE daylight
16 Apr - 08:19:57 10° SW 08:25:17 19° SSW 08:30:35 10° SSE daylight
16 Apr - 10:17:10 10° SSW 10:21:33 16° S 10:25:50 10° SE daylight
16 Apr - 12:11:26 10° SW 12:17:29 25° SSE 12:23:15 10° ESE daylight
16 Apr - 14:05:05 10° SW 14:12:22 65° SSE 14:19:09 10° ENE daylight
16 Apr - 16:00:07 10° W 16:06:26 36° NNW 16:12:27 10° NNE daylight
17 Apr - 01:43:03 10° N 01:46:45 15° NNE 01:50:34 10° ENE visible
17 Apr - 03:33:57 10° NW 03:41:02 54° NNE 03:48:33 10° ESE visible
17 Apr - 05:28:09 10° W 05:35:29 51° SSW 05:43:06 10° SE daylight
17 Apr - 07:24:55 10° WSW 07:30:46 22° SSW 07:36:40 10° SSE daylight
17 Apr - 09:22:33 10° SW 09:26:57 16° S 09:31:16 10° SE daylight
17 Apr - 11:17:28 10° SSW 11:23:06 21° SSE 11:28:32 10° ESE daylight
17 Apr - 13:11:04 10° SW 13:18:17 49° SSE 13:25:04 10° E daylight
17 Apr - 15:05:35 10° WSW 15:12:33 52° NNW 15:19:04 10° NE daylight
17 Apr - 17:03:42 10° WNW 17:06:40 13° NNW 17:09:35 10° N daylight
18 Apr - 02:40:29 10° NW 02:47:03 39° NNE 02:53:58 10° E visible
18 Apr - 04:33:56 10° WNW 04:41:19 67° SSW 04:49:05 10° SE visible
18 Apr - 06:30:01 10° WSW 06:36:20 27° SSW 06:42:46 10° SE daylight
18 Apr - 08:27:44 10° SW 08:32:19 16° S 08:36:53 10° SSE daylight
18 Apr - 10:23:25 10° SSW 10:28:36 19° S 10:33:40 10° SE daylight
18 Apr - 12:17:07 10° SW 12:24:08 38° SSE 12:30:45 10° E daylight
18 Apr - 14:11:14 10° WSW 14:18:37 74° NNW 14:25:30 10° NE daylight
18 Apr - 16:07:49 10° WNW 16:12:40 20° NNW 16:17:21 10° NNE daylight
19 Apr - 01:47:18 10° NNW 01:53:03 27° NNE 01:59:06 10° E visible
19 Apr - 03:39:56 10° WNW 03:47:13 88° SSW 03:54:57 10° ESE visible
19 Apr - 05:35:17 10° W 05:41:57 33° SSW 05:48:52 10° SE daylight
19 Apr - 07:32:48 10° SW 07:37:43 17° S 07:42:40 10° SSE daylight
19 Apr - 09:29:15 10° SSW 09:34:03 17° S 09:38:47 10° SE daylight
19 Apr - 11:23:10 10° SW 11:29:51 31° SSE 11:36:15 10° E daylight
19 Apr - 13:17:02 10° WSW 13:24:37 83° SSE 13:31:43 10° ENE daylight
19 Apr - 15:12:41 10° W 15:18:43 29° NNW 15:24:28 10° NNE daylight
20 Apr - 00:54:28 10° N 00:59:03 19° NNE 01:03:49 10° ENE visible
20 Apr - 02:46:09 10° NW 02:53:11 69° NNE 03:00:42 10° ESE visible
20 Apr - 04:40:47 10° W 04:47:40 41° SSW 04:54:55 10° SE visible
20 Apr - 06:37:50 10° SW 06:43:10 20° SSW 06:48:34 10° SSE daylight
20 Apr - 08:34:55 10° SSW 08:39:27 16° S 08:43:57 10° SE daylight
20 Apr - 10:29:15 10° SW 10:35:29 25° SSE 10:41:33 10° ESE daylight
20 Apr - 12:22:55 10° SW 12:30:33 62° SSE 12:37:42 10° ENE daylight
20 Apr - 14:17:53 10° W 14:24:46 41° NNW 14:31:15 10° NE daylight
21 Apr - 00:02:27 10° N 00:05:01 12° NNE 00:07:39 10° NE night (unlit)
21 Apr - 01:52:35 10° NW 01:59:13 49° NNE 02:06:17 10° ESE visible
21 Apr - 03:46:29 10° WNW 03:53:29 53° SSW 04:00:57 10° SE visible
21 Apr - 05:42:56 10° WSW 05:48:40 23° SSW 05:54:35 10° SE daylight
21 Apr - 07:40:24 10° SW 07:44:49 16° S 07:49:16 10° SE daylight
21 Apr - 09:35:18 10° SSW 09:41:02 21° SSE 09:46:41 10° ESE daylight
21 Apr - 11:28:55 10° SW 11:36:22 48° SSE 11:43:30 10° E daylight
21 Apr - 13:23:22 10° WSW 13:30:48 58° NNW 13:37:47 10° NE daylight
21 Apr - 15:21:00 10° WNW 15:25:00 15° NNW 15:28:52 10° N daylight
22 Apr - 00:59:15 10° NNW 01:05:17 34° NNE 01:11:39 10° E visible
22 Apr - 02:52:24 10° WNW 02:59:24 71° SSW 03:06:54 10° SE visible
22 Apr - 04:48:11 10° WSW 04:54:16 27° SSW 05:00:38 10° SE visible
22 Apr - 06:45:41 10° SW 06:50:12 16° S 06:54:47 10° SSE daylight
22 Apr - 08:41:18 10° SSW 08:46:30 19° S 08:51:42 10° SE daylight
22 Apr - 10:34:57 10° SW 10:42:08 37° SSE 10:49:04 10° E daylight
22 Apr - 12:29:01 10° WSW 12:36:47 79° NNW 12:44:05 10° NE daylight
22 Apr - 14:25:22 10° W 14:30:57 23° NNW 14:36:18 10° NNE daylight
23 Apr - 00:06:11 10° NNW 00:11:22 24° NNE 00:16:45 10° E night (unlit)
23 Apr - 01:58:31 10° WNW 02:05:23 86° NNE 02:12:46 10° ESE visible
23 Apr - 03:53:36 10° W 03:59:58 33° SSW 04:06:42 10° SE visible
23 Apr - 05:50:52 10° SW 05:55:37 17° S 06:00:29 10° SSE daylight
23 Apr - 07:47:12 10° SSW 07:51:56 17° S 07:56:41 10° SE daylight
23 Apr - 09:41:03 10° SW 09:47:48 30° SSE 09:54:24 10° E daylight
23 Apr - 11:34:50 10° WSW 11:42:42 78° SSE 11:50:11 10° ENE daylight
23 Apr - 13:30:18 10° W 13:36:57 32° NNW 13:43:15 10° NNE daylight
23 Apr - 23:13:33 10° N 23:17:25 16° NNE 23:21:22 10° ENE night (unlit)
